Overview Statistics Trail Chart Weather Telemetry Raw packets
 

This is the latest recevied weather packets stored in our database for station/object HP1COO-13. If no packets are shown the sender has not sent any weather packets the latest 10 day(s).

<< 47 48 49 50 51 52 53 >>
Time Temp. Humidity Pressure Rain* Wind** Luminosity Snow
1787878503 25.56° C 97% 1005.9 hPa 0 mm - - -
1787877870 25.56° C 97% 1005.7 hPa 0 mm - - -
1787877237 25.56° C 97% 1005.6 hPa 0 mm - - -
1787875971 25.56° C 96% 1005.3 hPa 0 mm - - -
1787875338 25.56° C 96% 1005.4 hPa 0 mm - - -
1787874705 25.56° C 96% 1005.2 hPa 0 mm - - -
1787874072 25.56° C 96% 1005.5 hPa 0 mm - - -
1787873439 26.11° C 97% 1005.6 hPa 0 mm - - -
1787872806 26.11° C 96% 1005.6 hPa 0.25 mm - - -
1787872173 26.11° C 96% 1005.3 hPa 0.51 mm - - -
1787871540 26.11° C 96% 1005.2 hPa 0.76 mm - - -
1787870907 26.11° C 96% 1005.1 hPa 0.76 mm - - -
1787870274 26.11° C 97% 1004.8 hPa 0.76 mm - - -
1787869641 26.67° C 97% 1004.6 hPa 0.76 mm - - -
1787869008 26.67° C 98% 1004.7 hPa 0.51 mm - - -
1787868375 26.67° C 97% 1004.3 hPa 0.25 mm - - -
1787867742 26.11° C 97% 1004.4 hPa 0 mm - - -
1787867109 26.11° C 97% 1004.5 hPa 1.27 mm - - -
1787866476 26.11° C 97% 1004.5 hPa 9.65 mm - - -
1787865843 26.67° C 98% 1004.6 hPa 10.16 mm - - -
1787865210 26.67° C 98% 1004.4 hPa 13.72 mm - - -
1787864577 27.22° C 99% 1004.2 hPa 21.59 mm - - -
1787863944 26.67° C 98% 1004.3 hPa 23.11 mm - - -
1787863311 26.67° C 98% 1004.2 hPa 22.1 mm - - -
1787862678 27.22° C 98% 1004.7 hPa 13.21 mm - - -

* Rain latest hour (hover to see other rain measurements)
** Current wind speed in m/s (hover to see current wind gust speed)